Regional Weather Roundup
Issued by NWS

Home | Current Version | Previous Version | Graphics & Text | Print | Product List | Glossary On
Versions: 1 2 3 4 5 6 7 8 9 10 11 12 13 14 15 16 17 18 19 20 21 22 23 24 25 26 27 28 29 30 31 32 33 34 35 36 37 38 39 40 41 42 43 44 45 46 47 48 49 50
000
ASUS45 KCYS 010210
RWRWY

WYOMING REGIONAL WEATHER ROUNDUP
NATIONAL WEATHER SERVICE CHEYENNE WY
700 PM MST SAT JAN 31 2015

NOTE:  "FAIR" INDICATES FEW OR NO CLOUDS BELOW 12,000 FEET
WITH NO SIGNIFICANT WEATHER AND/OR OBSTRUCTIONS TO VISIBILITY.

WYZ001-010300-
YELLOWSTONE NATIONAL PARK

CITY           SKY/WX    TMP DP  RH WIND       PRES   REMARKS
LK YELLOWSTONE   N/A     19   9  65 CALM      30.04R
W YELLOWSTONE  NOT AVBL

$$
WYZ002>013-054>058-071-098>099-010300-
NORTHERN WYOMING

CITY           SKY/WX    TMP DP  RH WIND       PRES   REMARKS
JACKSON        CLEAR     25  14  63 N16       30.02R WCI  12
CODY           CLOUDY    19  18  93 N22G28    30.09R WCI   3
GREYBULL       FAIR      28  16  60 NW20G28   30.06R WCI  15
WORLAND        CLOUDY    28  20  71 NW17      30.06R WCI  16
SHERIDAN       FLURRIES  23  17  78 NW22G30   30.15R WCI   8
BUFFALO        LGT SNOW  20  17  88 N30G41    30.04R FOG     WCI   1
GILLETTE       CLOUDY    24  19  81 NW23G35   30.03R WCI   9
HULETT           N/A    N/A N/A N/A MISG        N/A
NEWCASTLE      LGT SNOW  30  27  86 NW15      29.97R WCI  19

$$
WYZ014>020-022>026-101>103-010300-
CENTRAL WYOMING

CITY           SKY/WX    TMP DP  RH WIND       PRES   REMARKS
BIG PINEY      FAIR      25  10  53 N17       29.99R WCI  12
PINEDALE       FAIR      23  10  58 NW15      29.99R WCI  10
DUBOIS         FAIR      28   9  43 W15G22    29.95R WCI  17
LANDER         MOCLDY    30  21  69 VRB5      30.01R WCI  25
RIVERTON       FAIR      29  21  72 NE17      29.98R WCI  17
CASPER         CLOUDY    25  18  74 N22G28    30.00R WCI  10
DOUGLAS        CLOUDY    31  23  72 NW18G29   29.98R WCI  19

$$
WYZ021-027>030-104>119-010300-
SOUTHERN WYOMING

CITY           SKY/WX    TMP DP  RH WIND       PRES   REMARKS
EVANSTON       FAIR      32  17  54 VRB3      30.05S
KEMMERER       FAIR      27  18  69 N3        30.03R
FORT BRIDGER   FAIR      32  19  60 W9        30.06R WCI  24
ROCK SPRINGS   FAIR      33   4  29 NW21G31   29.94R WCI  21
DIXON          FAIR      34  28  80 SW14      29.92S WCI  24
RAWLINS        FAIR      29  17  61 NW15      29.90R WCI  18
SARATOGA       FAIR      30  23  74 W12       29.88R WCI  21
LARAMIE        CLOUDY    29  17  61 N10       29.84R WCI  20
CHEYENNE       CLOUDY    30  27  88 N8        29.83R WCI  22
TORRINGTON     CLOUDY    29  25  85 NE15      29.91R WCI  18
PINE BLUFFS    CLOUDY    30  30 100 N13       29.86R WCI  20

$$



USA.gov is the U.S. government's official web portal to all federal, state and local government web resources and services.